EW6322 Weather Reports


time (UTC)temp
F
wind
direction
speed
knots
gust
knots
rain 1hr
in
rain 24hr
in
rain mn
in
humidity
%
barometer
mb
20260906204629 104 93 0.9 4.3 0.00 0.00 0.00 28 1011.9
20260906203130 103 77 0.9 6.1 0.00 0.00 0.00 28 1012.0
20260906201629 102 224 3.5 10.4 0.00 0.00 0.00 30 1012.1
20260906200129 103 113 1.7 7.8 0.00 0.00 0.00 30 1012.3
20260906194629 103 11 1.7 5.2 0.00 0.00 0.00 32 1012.5
20260906193129 102 88 1.7 4.3 0.00 0.00 0.00 33 1012.6
20260906191628 101 140 0.9 3.5 0.00 0.00 0.00 34 1012.7
20260906190130 102 277 0.9 7.8 0.00 0.00 0.00 32 1013.0
20260906190033 103 292 0.9 7.8 0.00 0.00 0.00 32 1013.3
20260906183131 102 75 0.9 5.2 0.00 0.00 0.00 35 1013.4
20260906181628 102 215 0.9 7.0 0.00 0.00 0.00 34 1013.7
20260906180130 102 95 0.9 5.2 0.00 0.00 0.00 36 1013.8
20260906174629 101 187 0.9 4.3 0.00 0.00 0.00 37 1013.9
20260906173129 99 229 0.9 4.3 0.00 0.00 0.00 39 1014.1
20260906172327 96 116 0.0 3.5 0.00 0.00 0.00 42 1014.1
20260906170130 97 250 0.9 6.1 0.00 0.00 0.00 41 1014.5
20260906164629 96 84 0.9 5.2 0.00 0.00 0.00 42 1014.6
20260906163130 95 293 1.7 6.1 0.00 0.00 0.00 44 1014.6
20260906161629 94 229 0.9 6.1 0.00 0.00 0.00 46 1014.5
20260906160129 93 255 2.6 7.0 0.00 0.00 0.00 47 1014.0
20260906154629 92 251 1.7 5.2 0.00 0.00 0.00 48 1014.1
20260906153126 91 255 1.7 5.2 0.00 0.00 0.00 51 1013.9
20260906151623 90 235 1.7 6.1 0.00 0.00 0.00 52 1013.9
20260906150120 88 223 3.5 6.1 0.00 0.00 0.00 53 1013.8
20260906144618 87 221 3.5 6.1 0.00 0.00 0.00 56 1013.7
20260906143119 86 273 2.6 6.1 0.00 0.00 0.00 58 1013.8
20260906141618 84 221 3.5 7.0 0.00 0.00 0.00 60 1013.7
20260906140115 84 228 2.6 7.0 0.00 0.00 0.00 60 1013.7
20260906134614 83 232 3.5 6.1 0.00 0.00 0.00 61 1013.6
20260906133114 82 219 2.6 4.3 0.00 0.00 0.00 63 1013.6
20260906131614 80 226 2.6 4.3 0.00 0.00 0.00 65 1013.4
20260906130112 79 174 1.7 3.5 0.00 0.00 0.00 67 1013.3
20260906124612 78 231 0.9 1.7 0.00 0.00 0.00 68 1013.1
20260906123112 78 168 0.9 1.7 0.00 0.00 0.00 68 1012.9
20260906121612 77 169 0.9 2.6 0.00 0.00 0.00 69 1012.8
20260906120112 77 162 0.0 2.6 0.00 0.00 0.00 69 1012.7
20260906114612 77 238 0.0 0.9 0.00 0.00 0.00 68 1012.6
20260906113112 77 238 0.0 0.9 0.00 0.00 0.00 67 1012.4
20260906111612 78 238 0.0 1.7 0.00 0.00 0.00 65 1012.3
20260906110112 79 238 0.9 2.6 0.00 0.00 0.00 64 1012.2
20260906104612 79 165 0.9 2.6 0.00 0.00 0.00 62 1011.9
20260906103112 80 172 0.9 5.2 0.00 0.00 0.00 61 1012.0
20260906101611 80 176 1.7 4.3 0.00 0.00 0.00 61 1011.9
20260906100802 80 166 0.9 2.6 0.00 0.00 0.00 61 1011.9
20260906094612 80 168 0.9 2.6 0.00 0.00 0.00 61 1012.0
20260906093110 80 169 0.0 1.7 0.00 0.00 0.00 60 1011.9
20260906092312 81 169 0.9 2.6 0.00 0.00 0.00 59 1011.9
20260906090811 81 164 0.9 2.6 0.00 0.00 0.00 59 1011.9
20260906084608 80 175 0.0 1.7 0.00 0.00 0.00 60 1011.7
20260906083106 81 232 0.0 1.7 0.00 0.00 0.00 59 1011.7
20260906082306 81 232 0.9 1.7 0.00 0.00 0.00 58 1011.5
20260906080104 81 232 0.9 1.7 0.00 0.00 0.00 58 1011.8
20260906075315 81 232 0.0 1.7 0.00 0.00 0.00 58 1011.7
20260906073102 82 232 0.9 1.7 0.00 0.00 0.00 57 1011.5
20260906072256 82 232 0.9 1.7 0.00 0.00 0.00 56 1011.7
20260906065955 83 232 1.7 2.6 0.00 0.00 0.00 56 1011.5
20260906063102 83 232 0.0 1.7 0.00 0.00 0.00 55 1011.8
20260906061601 83 232 0.9 2.6 0.00 0.00 0.00 55 1011.8
20260906060749 83 227 1.7 3.5 0.00 0.00 0.00 54 1011.8
20260906054601 84 229 0.0 2.6 0.00 0.00 0.00 54 1011.7
20260906053104 84 224 0.9 3.5 0.00 0.00 0.00 52 1011.5
20260906051601 85 174 0.9 3.5 0.00 0.00 0.00 51 1011.4
20260906044601 85 164 0.0 1.7 0.00 0.00 0.00 51 1011.5
20260906043103 85 164 0.9 2.6 0.00 0.00 0.00 50 1011.5
20260906041601 86 217 0.9 3.5 0.00 0.00 0.00 49 1011.5
20260906040103 87 168 0.9 3.5 0.00 0.00 0.00 48 1011.5
20260906034601 87 174 0.9 3.5 0.00 0.00 0.00 48 1011.5
20260906033103 87 165 0.9 6.1 0.00 0.00 0.00 48 1011.5
20260906031601 87 176 0.9 3.5 0.00 0.00 0.00 47 1011.3
20260906030104 88 176 0.9 2.6 0.00 0.00 0.00 47 1011.3
20260906024601 88 164 0.0 1.7 0.00 0.00 0.00 46 1011.1
20260906023104 88 179 0.0 2.6 0.00 0.00 0.00 46 1011.1
20260906021600 89 180 0.0 2.6 0.00 0.00 0.00 46 1010.9
20260906020105 89 188 0.0 1.7 0.00 0.00 0.00 45 1010.8
20260906014601 89 189 0.0 1.7 0.00 0.00 0.00 45 1010.7
20260906013103 90 191 0.0 0.9 0.00 0.00 0.00 44 1010.4
20260906011601 91 191 0.0 1.7 0.00 0.00 0.00 42 1010.3
20260906010104 93 165 0.0 0.9 0.00 0.00 0.00 40 1010.5
20260906005257 95 165 0.9 2.6 0.00 0.00 0.00 38 1010.4
20260906003104 97 231 0.9 4.3 0.00 0.00 0.00 36 1010.6
20260906001601 100 155 0.0 1.7 0.00 0.00 0.00 33 1010.8
20260906000807 101 127 0.0 3.5 0.00 0.00 0.00 31 1010.8
20260905235252 101 146 0.0 3.5 0.00 0.00 0.00 32 1010.6
20260905233756 102 184 0.9 6.1 0.00 0.00 0.00 32 1010.6
20260905231600 102 208 1.7 6.1 0.00 0.00 0.00 32 1010.5
20260905224600 103 167 0.9 7.0 0.00 0.00 0.00 30 1010.6
20260905223102 103 147 0.9 5.2 0.00 0.00 0.00 30 1010.5
20260905221601 102 190 1.7 7.8 0.00 0.00 0.00 31 1010.5
20260905214601 102 161 0.9 8.7 0.00 0.00 0.00 31 1010.8
20260905213102 102 119 1.7 8.7 0.00 0.00 0.00 32 1011.0
20260905211601 101 154 1.7 6.1 0.00 0.00 0.00 32 1010.9
20260905211510 102 188 1.7 7.0 0.00 0.00 0.00 33 1011.2